星链-32824 (STARLINK-32824)

导读

STARLINK-32824是美国太空探索技术公司SpaceX星链星座的卫星,于2025年1月24日发射升空,属于星链星座组网扩容的成员。星链项目旨在打造全球卫星互联网星座,为全球偏远地区、海洋等网络覆盖薄弱区域提供高速低延迟的互联网接入服务,该卫星的发射进一步扩充了星链星座的在轨规模。

基本信息
目录编号:
62817
目录名称:
STARLINK-32824
国际标识:
2025-018M
轨道中心:
EARTH
卫星名称:
星链-32824
卫星全名:
星链-32824 (STARLINK-32824)
卫星状态:
在轨 (已飞行588 天)
发射日期:
2025-01-24 UTC
国别 :
美国 (US)
星等 :
--
轨道信息
数据来源 国际轨道数据
星历时间: 2026-09-03T12:18:54+0800
1天前
查看轨道信息
半长轴: 6840.848km
偏心率: 0.0001048
轨道倾角: 53.158°
近地点辐角 80.080°
升交点赤经 204.411°
平近点角 280.032°
近地点: 461.994km
远地点: 463.428km
周期: 93.848分钟
每日圈数: 15.343975
详细信息
固有亮度:
5
最大亮度:
2.5
卫星平台:
Starlink V1.0
覆盖范围:
全球
运营商:
太空探索技术公司
运营商所在国:
美国
制造商(研发单位):
太空探索技术公司
制造商所在国:
美国
使用方式:
暂无
卫星简介
Starlink 计划是 SpaceX 推出的全球卫星互联网项目,通过发射低轨道卫星,为全球尤其是偏远地区提供高速、低延迟的互联网服务。自 2019 年起,Starlink 已部署数千颗卫星,旨在缩小全球数字鸿沟,推动互联网普及。该项目还为军事、航空等行业提供通信支持,带来广泛经济效益。
2D轨道图
3D轨道图
轨道高度分析图
轨道倾角分析图
轨道综合分析图
查看轨道综合分析图
交会数据列表
事件ID 空间交会对象 最接近时刻(TCA) 交会距离 交会风险概率(CRP) 交会风险指数(CRI) 操作
CDM_260903-120805-226906-281721
2026-09-03T
12:08:51+0000
1.690 km
极远距离
4.045395E-6 低风险 0.47
CDM_260903-191005-226906-281721
2026-09-03T
19:10:52+0000
1.880 km
极远距离
2.983347E-6 低风险 0.44
CDM_260903-134604-649606-281722
ICEYE-X7 (46496)
2026-09-03T
13:46:45+0000
2.205 km
极远距离
1.31641E-6 低风险 0.37
CDM_260901-105405-226906-281721
2026-09-01T
10:54:13+0000
2.837 km
极远距离
1.287621E-6 低风险 0.37
CDM_260829-015605-264606-281722
2026-08-29T
01:56:47+0000
2.839 km
极远距离
6.33089E-7 极低风险 0.31